sat.trackr.live / text

‹ back to catalog

SES-15 (WAAS/PRN 133)

NORAD 42709 · 2017-026A

PAYLOAD ACTIVE UNKNOWN

§ Identity

Operator
Country
SES
Launch date
2017-05-18
Launch site
FRGUI
Launch vehicle
Mass (kg)
RCS (m²)

Purposes: comms, nav

External: N2YO · Heavens-Above · Gunter

§ Orbital elements

Epoch: 2026-09-12T03:01:36.850080Z

Period
1,436.14 min
Inclination
0.0478°
Eccentricity
0.0000382
Mean motion
1.00269042 rev/d
Perigee alt
35,785.8 km
Apogee alt
35,789.0 km
Semi-major
42,165.5 km
B*
0.0000e+0
RAAN
325.9922°
Arg perigee
175.9500°
Mean anomaly
125.4396°
Rev number
830

§ Raw data

SES-15 (WAAS/PRN 133)1 42709U 17026A   26255.12612095  .00000045  00000+0  00000+0 0  99912 42709   0.0478 325.9922 0000382 175.9500 125.4396  1.00269042  8300

JSON: /api/v1/satellites/42709 · /tle

For live sub-satellite position, see the globe view (requires WebGL).

§ Visibility from observer

Set your observer location to see the next 7 days of passes ≥ 10°. The values pass through the URL so the page stays shareable.

No JS? Fill the form by hand. The geolocation button needs JavaScript.